Location: Newark
(34.9500°N, 139.9667°E)
Time: 02:38:26
(UTC+00:00)

SR - All Passes

Search period start: 09 December 2019 00:00
Search period end: 19 December 2019 00:00
Orbit: 573 x 882 km, 66.7° (Epoch: 07 December)

Date Brightness Start Highest point End Pass type
(mag) Time Alt. Az. Time Alt. Az. Time Alt. Az.
09 Dec - 00:51:28 10° SW 00:56:32 40° WNW 01:01:58 10° NNE daylight
09 Dec - 07:55:57 10° NNE 07:58:20 12° NE 08:00:41 10° ENE visible
09 Dec - 09:35:38 10° NNW 09:41:29 77° ENE 09:46:55 10° SSE visible
09 Dec - 11:20:35 10° WNW 11:22:43 12° W 11:24:48 10° WSW visible
09 Dec - 22:24:01 10° ESE 22:25:33 11° E 22:27:07 10° E daylight
10 Dec - 00:01:23 10° SSW 00:06:44 80° WNW 00:12:32 10° NNE daylight
10 Dec - 01:47:24 10° WNW 01:49:50 13° NW 01:52:19 10° NNW daylight
10 Dec - 08:46:14 10° NNW 08:51:40 39° ENE 08:56:47 10° SE visible
10 Dec - 10:28:48 10° NW 10:33:31 27° WSW 10:37:59 10° SSW visible
10 Dec - 23:12:03 10° S 23:17:10 49° ESE 23:22:41 10° NE daylight
11 Dec - 00:55:16 10° WSW 00:59:35 23° NW 01:04:08 10° N daylight
11 Dec - 07:57:15 10° N 08:01:37 21° NE 08:05:49 10° E visible
11 Dec - 09:38:30 10° NW 09:44:09 56° WSW 09:49:24 10° S visible
11 Dec - 22:23:39 10° SSE 22:27:50 24° ESE 22:32:14 10° NE daylight
12 Dec - 00:04:26 10° SW 00:09:35 43° WNW 00:15:05 10° NNE daylight
12 Dec - 07:09:21 10° NNE 07:11:21 12° NE 07:13:18 10° ENE daylight
12 Dec - 08:48:43 10° NNW 08:54:32 72° ENE 08:59:57 10° SSE visible
12 Dec - 10:33:20 10° WNW 10:35:49 13° WSW 10:38:15 10° SW visible
12 Dec - 21:37:51 10° ESE 21:38:40 10° E 21:39:29 10° E daylight
12 Dec - 23:14:24 10° SSW 23:19:48 85° WNW 23:25:37 10° NNE daylight
13 Dec - 01:00:06 10° WNW 01:02:50 14° NW 01:05:38 10° NNW daylight
13 Dec - 07:59:20 10° N 08:04:43 37° NE 08:09:45 10° ESE visible
13 Dec - 09:41:49 10° NW 09:46:37 28° WSW 09:51:09 10° SSW visible
13 Dec - 22:25:09 10° S 22:30:15 46° ESE 22:35:44 10° NE daylight
14 Dec - 00:08:09 10° WSW 00:12:37 24° NW 00:17:18 10° N daylight
14 Dec - 07:10:26 10° N 07:14:39 20° NE 07:18:40 10° E daylight
14 Dec - 08:51:33 10° NW 08:57:14 60° WSW 09:02:29 10° S visible
14 Dec - 21:36:51 10° SSE 21:40:55 22° ESE 21:45:12 10° NE daylight
14 Dec - 23:17:24 10° SW 23:22:36 46° WNW 23:28:12 10° NNE daylight
15 Dec - 06:22:49 10° NNE 06:24:20 11° NE 06:25:50 10° ENE daylight
15 Dec - 08:01:49 10° NNW 08:07:36 68° ENE 08:12:58 10° SE visible
15 Dec - 09:46:08 10° WNW 09:48:56 14° WSW 09:51:38 10° SW visible
15 Dec - 22:27:27 10° SSW 22:32:51 90° ESE 22:38:42 10° NNE daylight
16 Dec - 00:12:51 10° WNW 00:15:50 14° NW 00:18:54 10° NNW daylight
16 Dec - 07:12:29 10° N 07:17:45 34° NE 07:22:41 10° ESE daylight
16 Dec - 08:54:49 10° NW 08:59:43 30° WSW 09:04:19 10° SSW visible
16 Dec - 21:38:16 10° S 21:43:20 44° ESE 21:48:46 10° NE daylight
16 Dec - 23:21:03 10° WSW 23:25:37 26° NW 23:30:27 10° N daylight
17 Dec - 06:23:37 10° N 06:27:39 19° NE 06:31:31 10° E daylight
17 Dec - 08:04:36 10° NNW 08:10:18 64° WSW 08:15:33 10° SSE visible
17 Dec - 20:50:04 10° SSE 20:54:01 21° ESE 20:58:10 10° ENE visible
17 Dec - 22:30:23 10° SW 22:35:39 49° WNW 22:41:19 10° NNE daylight
18 Dec - 05:36:33 10° NNE 05:37:19 10° NE 05:38:06 10° NE daylight
18 Dec - 07:14:55 10° NNW 07:20:40 64° ENE 07:25:58 10° SE daylight
18 Dec - 08:58:59 10° WNW 09:02:02 15° WSW 09:04:58 10° SW visible
18 Dec - 21:40:30 10° SSW 21:45:55 85° ESE 21:51:47 10° NNE daylight
18 Dec - 23:25:37 10° W 23:28:50 15° NW 23:32:09 10° NNW daylight
